Weather History for Pompano Beach, FL

Change the Weather History Date:

Thursday, May 29, 2014

  Actual Average Record
Temperature  
Mean Temperature 78 °F -  
Max Temperature 84 °F 87 °F 93 °F (1951)
Min Temperature 73 °F 71 °F 60 °F (1974)
Cooling Degree Days 14    
Growing Degree Days 28 (Base 50)    
Moisture  
Dew Point 71 °F    
Average Humidity 79    
Maximum Humidity 94    
Minimum Humidity 69    
Precipitation  
Precipitation 0.44 in - - ()
Sea Level Pressure  
Sea Level Pressure 30.03 in    
Wind  
Wind Speed 8 mph (SE)    
Max Wind Speed 15 mph    
Max Gust Speed 22 mph    
Visibility 9 miles    
Events Rain , Thunderstorm    
Averages and records for this station are not official NWS values.
T = Trace of Precipitation, MM = Missing Value Source: NWS Daily Summary

Daily Weather History Graph

Daily Weather History Graph

Search for Another Location

Airport:

Trip Planner

Search our weather history database for the weather conditions in past years. The results will help you decide how hot, cold, wet, or windy it might be!

Date:

Astronomy

May. 29, 2014 Rise Set
Actual Time 6:28 AM EDT 8:07 PM EDT
Civil Twilight 6:02 AM EDT 8:33 PM EDT
Nautical Twilight 5:32 AM EDT 9:03 PM EDT
Astronomical Twilight 4:59 AM EDT 9:36 PM EDT
Moon 7:15 AM EDT (5/29) 9:00 PM EDT (5/29)
Length of Visible Light 14h 30m
Length of Day
13h 38m
New Moon, 1% of the Moon is Illuminated
May 29
New Moon
Jun 5
First Quarter
Jun 13
Full
Jun 19
Last Quarter
Jun 27
New

Hourly Weather History & Observations

Time (EDT) Temp. Heat Index Dew Point Humidity Pressure Visibility Wind Dir Wind Speed Gust Speed Precip Events Conditions
12:53 AM 80.1 °F 84.2 °F 73.0 °F 79% 30.04 in 10.0 mi SE 10.4 mph - N/A   Partly Cloudy
2:53 AM 80.1 °F 83.6 °F 71.1 °F 74% 29.99 in 10.0 mi ESE 10.4 mph - N/A   Mostly Cloudy
4:53 AM 80.1 °F 83.8 °F 72.0 °F 76% 29.98 in 10.0 mi East 8.1 mph - N/A   Clear
5:53 AM 78.1 °F - 68.0 °F 71% 29.99 in 10.0 mi SSE 9.2 mph - N/A   Mostly Cloudy
6:00 AM 78.1 °F - 68.0 °F 71% 29.99 in 10.0 mi SSE 8.1 mph - N/A   Mostly Cloudy
6:53 AM 80.1 °F 84.2 °F 73.0 °F 79% 30.01 in 10.0 mi South 6.9 mph - 0.00 in Thunderstorm Thunderstorm
7:02 AM 78.1 °F - 72.0 °F 81% 30.01 in 10.0 mi SW 4.6 mph - N/A Thunderstorm Scattered Clouds
7:11 AM 78.1 °F - 72.0 °F 81% 30.01 in 10.0 mi Variable 3.5 mph - N/A   Mostly Cloudy
7:38 AM 80.1 °F 83.8 °F 72.0 °F 76% 30.02 in 10.0 mi SE 11.5 mph - 0.00 in   Mostly Cloudy
7:53 AM 79.0 °F - 70.0 °F 74% 30.02 in 10.0 mi SE 8.1 mph - 0.00 in   Partly Cloudy
8:53 AM 79.0 °F - 72.0 °F 79% 30.04 in 10.0 mi ESE 4.6 mph - N/A   Mostly Cloudy
9:53 AM 84.0 °F 90.2 °F 73.0 °F 69% 30.04 in 10.0 mi East 9.2 mph - N/A   Partly Cloudy
10:19 AM 80.1 °F 84.2 °F 73.0 °F 79% 30.04 in 4.0 mi South 8.1 mph - 0.02 in Rain , Thunderstorm Light Thunderstorms and Rain
10:30 AM 75.9 °F - 71.1 °F 85% 30.05 in 0.8 mi South 13.8 mph - 0.19 in Rain , Thunderstorm Heavy Thunderstorms and Rain
10:41 AM 75.0 °F - 72.0 °F 90% 30.05 in 1.2 mi SSW 5.8 mph - 0.27 in Rain , Thunderstorm Thunderstorms and Rain
10:53 AM 75.0 °F - 73.0 °F 94% 30.06 in 7.0 mi WSW 3.5 mph - 0.31 in Rain , Thunderstorm Thunderstorms and Rain
11:17 AM 75.9 °F - 73.0 °F 91% 30.06 in 8.0 mi Calm Calm - 0.01 in Rain , Thunderstorm Light Rain
11:48 AM 78.8 °F - 73.4 °F 83% 30.05 in 10.0 mi ESE 5.8 mph - 0.01 in   Clear
11:53 AM 79.0 °F - 73.0 °F 82% 30.06 in 10.0 mi SE 8.1 mph - 0.01 in   Clear
12:35 PM 81.0 °F 86.2 °F 73.9 °F 79% 30.04 in 10.0 mi SE 12.7 mph - N/A Thunderstorm Scattered Clouds
12:53 PM 82.0 °F 87.4 °F 73.0 °F 74% 30.05 in 10.0 mi SE 10.4 mph - N/A Thunderstorm Scattered Clouds
1:13 PM 82.0 °F 87.9 °F 73.9 °F 76% 30.04 in 10.0 mi SE 9.2 mph - N/A   Clear
1:25 PM 82.0 °F 87.4 °F 73.0 °F 74% 30.04 in 10.0 mi ESE 10.4 mph - N/A Thunderstorm Clear
1:40 PM 82.0 °F 87.9 °F 73.9 °F 76% 30.04 in 10.0 mi SE 10.4 mph - N/A   Clear
1:53 PM 80.1 °F 83.6 °F 71.1 °F 74% 30.05 in 10.0 mi SE 12.7 mph - N/A Thunderstorm Scattered Clouds
2:02 PM 79.0 °F - 68.0 °F 69% 30.05 in 10.0 mi SSE 13.8 mph 21.9 mph N/A Thunderstorm Thunderstorm
2:51 PM 75.2 °F - 69.8 °F 83% 30.03 in 10.0 mi South 11.5 mph - N/A Thunderstorm Partly Cloudy
2:53 PM 75.0 °F - 69.1 °F 82% 30.04 in 10.0 mi South 9.2 mph - 0.00 in Rain , Thunderstorm Light Rain
3:02 PM 75.0 °F - 66.9 °F 76% 30.04 in 10.0 mi SSE 9.2 mph - 0.00 in Rain , Thunderstorm Light Thunderstorms and Rain
3:17 PM 75.0 °F - 70.0 °F 84% 30.03 in 10.0 mi SE 11.5 mph 20.7 mph 0.00 in   Mostly Cloudy
3:24 PM 73.9 °F - 69.1 °F 85% 30.03 in 8.0 mi SE 15.0 mph 20.7 mph 0.00 in Rain , Thunderstorm Light Thunderstorms and Rain
3:45 PM 73.9 °F - 66.9 °F 79% 30.03 in 5.0 mi SSE 8.1 mph - 0.02 in Rain Rain
3:53 PM 73.9 °F - 68.0 °F 82% 30.02 in 4.0 mi South 6.9 mph - 0.03 in Rain Light Rain
4:53 PM 73.9 °F - 69.1 °F 85% 30.02 in 6.0 mi Calm Calm - 0.09 in Rain Light Rain
5:10 PM 75.0 °F - 69.1 °F 82% 30.02 in 9.0 mi Calm Calm - 0.01 in Rain Light Rain
6:53 PM 78.1 °F - 68.0 °F 71% 29.99 in 10.0 mi ESE 10.4 mph - 0.00 in   Partly Cloudy
7:53 PM 79.0 °F - 69.1 °F 72% 30.01 in 10.0 mi East 6.9 mph - N/A   Clear
8:53 PM 78.1 °F - 69.1 °F 74% 30.01 in 10.0 mi SSE 5.8 mph - N/A   Clear
9:53 PM 78.1 °F - 70.0 °F 76% 30.03 in 10.0 mi ESE 5.8 mph - N/A   Clear
10:53 PM 79.0 °F - 72.0 °F 79% 30.04 in 10.0 mi ESE 8.1 mph - N/A   Clear
11:53 PM 79.0 °F - 72.0 °F 79% 30.04 in 10.0 mi SE 6.9 mph - N/A   Clear